Weather History for Rygge, Norway

Change the Weather History Date:

Saturday, October 27, 2012

  Actual Average Record
Temperature  
Mean Temperature 34 °F -  
Max Temperature 42 °F 40 °F 58 °F (2014)
Min Temperature 26 °F 32 °F 23 °F (1997)
Degree Days  
Heating Degree Days 31    
Moisture  
Dew Point 20 °F    
Average Humidity 51    
Maximum Humidity 86    
Minimum Humidity 24    
Precipitation  
Precipitation 0.00 in - - ()
Sea Level Pressure  
Sea Level Pressure 29.75 in    
Wind  
Wind Speed 7 mph ()    
Max Wind Speed 13 mph    
Max Gust Speed -    
Visibility 6.2 miles    
Events      
Averages and records for this station are not official NWS values.
T = Trace of Precipitation, MM = Missing Value Source: Averaged Metar Reports

Daily Weather History Graph

Daily Weather History Graph

Search for Another Location

Airport:

Trip Planner

Search our weather history database for the weather conditions in past years. The results will help you decide how hot, cold, wet, or windy it might be!

Date:

Astronomy

Oct. 27, 2012 Rise Set
Actual Time 8:24 AM CEST 5:35 PM CEST
Civil Twilight 7:41 AM CEST 6:18 PM CEST
Nautical Twilight 6:53 AM CEST 7:06 PM CEST
Astronomical Twilight 6:06 AM CEST 7:53 PM CEST
Moon 4:31 PM CEST (10/27) 5:38 AM CEST (10/27)
Length of Visible Light 10h 37m
Length of Day
9h 10m
Waxing Gibbous, 95% of the Moon is Illuminated
Oct 27
Waxing Gibbous
Oct 29
Full
Nov 7
Last Quarter
Nov 13
New
Nov 20
First Quarter

Hourly Weather History & Observations

Time (CEST) Temp. Windchill Dew Point Humidity Pressure Visibility Wind Dir Wind Speed Gust Speed Precip Events Conditions
12:20 AM 33.8 °F 27.7 °F 17.6 °F 52% 29.62 in 6.2 mi West 6.9 mph - N/A   Unknown
12:50 AM 33.8 °F 27.7 °F 17.6 °F 52% 29.62 in 6.2 mi WNW 6.9 mph - N/A   Unknown
1:20 AM 33.8 °F 27.7 °F 17.6 °F 52% 29.62 in 6.2 mi NW 6.9 mph - N/A   Unknown
1:50 AM 33.8 °F 27.0 °F 17.6 °F 52% 29.62 in 6.2 mi NW 8.1 mph - N/A   Unknown
2:00 AM 34 °F - 18 °F 40% 29.65 in 31 mi NW 8.9 mph - -   Clear
2:20 AM 33.8 °F 25.3 °F 19.4 °F 56% 29.62 in 6.2 mi NW 11.5 mph - N/A   Unknown
2:50 AM 33.8 °F 27.7 °F 19.4 °F 56% 29.62 in 6.2 mi NNW 6.9 mph - N/A   Unknown
3:20 AM 33.8 °F 27.7 °F 21.2 °F 60% 29.65 in 6.2 mi NNW 6.9 mph - N/A   Unknown
3:50 AM 35.6 °F 27.5 °F 21.2 °F 56% 29.65 in 6.2 mi NNW 11.5 mph - N/A   Unknown
4:20 AM 35.6 °F 27.1 °F 21.2 °F 56% 29.65 in 6.2 mi North 12.7 mph - N/A   Unknown
4:50 AM 35.6 °F 27.1 °F 23.0 °F 60% 29.65 in 6.2 mi North 12.7 mph - N/A   Unknown
5:20 AM 37.4 °F 29.3 °F 23.0 °F 56% 29.68 in 6.2 mi NNW 12.7 mph - N/A   Mostly Cloudy
6:20 AM 35.6 °F 29.9 °F 23.0 °F 60% 29.71 in - NNW 6.9 mph - N/A   Clear
6:28 AM 35.6 °F 29.9 °F 23.0 °F 60% 29.71 in - NNW 6.9 mph - N/A   Clear
6:50 AM 35.6 °F 29.2 °F 23.0 °F 60% 29.71 in - NNW 8.1 mph - N/A   Clear
7:20 AM 35.6 °F 29.9 °F 23.0 °F 60% 29.71 in - Variable 6.9 mph - N/A   Clear
7:50 AM 35.6 °F 28.0 °F 21.2 °F 56% 29.71 in - North 10.4 mph - N/A   Clear
8:00 AM 35 °F - 22 °F 46% 29.75 in 25 mi North 8.9 mph - -   Clear
8:20 AM 35.6 °F 28.0 °F 21.2 °F 56% 29.74 in - North 10.4 mph - N/A   Clear
8:50 AM 35.6 °F 27.5 °F 21.2 °F 56% 29.74 in - NNW 11.5 mph - N/A   Clear
9:20 AM 35.6 °F 28.0 °F 21.2 °F 56% 29.77 in - NNW 10.4 mph - N/A   Clear
9:50 AM 37.4 °F 30.3 °F 19.4 °F 48% 29.77 in - NNW 10.4 mph - N/A   Clear
10:20 AM 37.4 °F 30.8 °F 19.4 °F 48% 29.77 in - NNW 9.2 mph - N/A   Clear
10:50 AM 39.2 °F 32.5 °F 19.4 °F 45% 29.80 in - NNW 10.4 mph - N/A   Clear
11:20 AM 39.2 °F 33.0 °F 19.4 °F 45% 29.80 in - NNW 9.2 mph - N/A   Clear
11:50 AM 39.2 °F 32.0 °F 17.6 °F 42% 29.80 in - North 11.5 mph - N/A   Clear
12:20 PM 41.0 °F 35.2 °F 17.6 °F 39% 29.80 in - North 9.2 mph - N/A   Clear
12:50 PM 41.0 °F 34.3 °F 17.6 °F 39% 29.80 in - North 11.5 mph - N/A   Clear
1:20 PM 41.0 °F 34.7 °F 15.8 °F 36% 29.80 in - North 10.4 mph - N/A   Clear
1:50 PM 41.0 °F 35.2 °F 17.6 °F 39% 29.80 in - North 9.2 mph - N/A   Clear
2:00 PM 42 °F - 17 °F 24% 29.82 in 28 mi North 8.9 mph - -   Partly Cloudy
2:20 PM 42.8 °F 38.0 °F 15.8 °F 34% 29.80 in - North 8.1 mph - N/A   Clear
2:50 PM 42.8 °F 37.0 °F 15.8 °F 34% 29.80 in - North 10.4 mph - N/A   Clear
3:20 PM 42.8 °F 38.0 °F 15.8 °F 34% 29.80 in - North 8.1 mph - N/A   Clear
3:50 PM 42.8 °F 37.5 °F 14.0 °F 31% 29.80 in - Variable 9.2 mph - N/A   Clear
4:20 PM 41.0 °F 37.1 °F 15.8 °F 36% 29.80 in - NNW 5.8 mph - N/A   Clear
4:50 PM 41.0 °F 38.0 °F 15.8 °F 36% 29.80 in - North 4.6 mph - N/A   Clear
5:20 PM 41.0 °F - 17.6 °F 39% 29.80 in - Variable 1.2 mph - N/A   Clear
5:50 PM 39.2 °F 35.9 °F 17.6 °F 42% 29.80 in - NW 4.6 mph - N/A   Clear
6:20 PM 37.4 °F - 19.4 °F 48% 29.80 in - Variable 1.2 mph - N/A   Clear
6:50 PM 37.4 °F - 19.4 °F 48% 29.80 in - Variable 1.2 mph - N/A   Clear
7:20 PM 35.6 °F - 17.6 °F 48% 29.80 in - Calm Calm - N/A   Clear
7:50 PM 37.4 °F - 17.6 °F 45% 29.80 in - WNW 1.2 mph - N/A   Clear
8:00 PM 37 °F - 18 °F 33% 29.83 in 31 mi West 2.2 mph - -   Clear
8:20 PM 35.6 °F - 19.4 °F 52% 29.83 in - Variable 1.2 mph - N/A   Clear
8:50 PM 32.0 °F - 19.4 °F 60% 29.83 in - Calm Calm - N/A   Clear
9:20 PM 33.8 °F - 23.0 °F 65% 29.83 in - Calm Calm - N/A   Clear
9:50 PM 32.0 °F - 23.0 °F 69% 29.83 in - Calm Calm - N/A   Clear
10:20 PM 28.4 °F 24.6 °F 23.0 °F 80% 29.83 in - NNE 3.5 mph - N/A   Clear
10:50 PM 28.4 °F - 24.8 °F 86% 29.83 in - Calm Calm - N/A   Clear
11:20 PM 26.6 °F 22.6 °F 23.0 °F 86% 29.83 in - NNW 3.5 mph - N/A   Clear
11:50 PM 26.6 °F 21.2 °F 23.0 °F 86% 29.83 in 6.2 mi North 4.6 mph - N/A   Unknown